EHI
1 1 0 0 0 0 0 0 0 0 0 0 0 0 0 0 0 0 0 0 0 0 0 1 4 7 8 7 5 3 3 4 5 5 5 3 2 1 1 2 2 1 0 1 0 0 1 1 2
1 1 0 0 0 0 0 0 0 0 0 0 0 0 0 0 0 0 0 0 0 0 0 1 4 7 6 5 4 2 2 3 3 3 3 2 1 0 0 1 1 0 0 1 1 1 2 2 1
1 1 0 0 0 0 0 0 0 0 0 0 0 0 0 0 0 0 0 0 0 0 0 1 3 5 3 2 2 2 1 1 1 1 1 1 0 0 0 0 0 0 0 0 1 1 2 1 0
0 0 0 0 0 0 0 0 0 0 0 0 0 0 0 0 0 0 0 0 0 0 0 0 1 1 1 0 1 1 0 0 0 0 0 0 0 0 0 0 0 0 0 0 0 1 1 0 0
0 0 0 0 0 0 0 0 0 0 0 0 0 0 0 0 0 0 0 0 0 0 0 0 0 0 1 1 1 0 0 0 0 0 0 0 0 0 0 0 0 0 0 0 0 0 0 0 0
0 0 0 0 0 0 0 0 0 0 0 0 0 0 0 0 0 0 0 0 0 0 0 0 0 1 2 2 2 1 0 0 0 0 0 0 0 0 0 0 0 0 0 0 0 0 0 0 0
0 0 0 0 0 0 0 0 0 0 0 0 0 0 0 0 0 0 0 0 0 0 0 0 0 1 1 2 2 1 1 1 0 0 0 0 0 0 0 0 0 0 0 0 0 0 0 0 0
0 0 0 0 0 0 0 0 0 0 0 0 0 0 0 0 0 0 0 0 0 0 0 0 0 0 0 1 2 2 2 1 0 0 0 0 0 0 0 0 0 0 0 0 0 0 0 0 0
0 0 0 0 0 0 0 0 0 0 0 1 1 0 0 0 0 0 0 0 0 0 0 0 0 0 0 0 1 1 1 1 0 0 0 0 0 0 0 0 0 0 0 0 0 0 0 0 0
0 0 0 0 0 0 0 0 0 0 1 2 2 2 1 1 0 0 1 1 0 0 0 0 0 0 0 0 0 0 0 0 0 0 0 0 0 0 0 0 0 0 0 0 0 0 0 0 0
0 0 0 0 0 0 0 0 0 0 1 2 3 3 2 1 0 0 1 1 0 0 0 0 0 0 0 0 0 0 0 0 0 0 0 0 0 0 0 0 0 0 0 0 0 0 0 0 0
0 0 0 0 0 0 0 0 0 0 0 1 2 2 1 0 0 0 0 1 0 0 0 0 0 0 0 0 0 0 0 0 0 0 0 0 0 0 0 0 0 0 0 0 0 0 0 0 0
0 0 0 0 0 0 0 0 0 0 0 1 1 1 0 0 0 0 1 1 0 0 0 0 0 0 0 0 0 0 0 0 0 0 0 0 0 0 0 0 0 0 0 0 0 0 0 0 0
0 0 0 0 0 0 0 0 0 0 0 0 0 0 0 0 0 0 1 1 0 0 0 0 0 0 0 0 0 0 0 0 0 0 0 0 0 0 0 0 0 0 0 0 0 0 0 0 0
0 0 0 0 0 0 0 0 0 0 0 0 0 0 0 0 0 0 0 0 0 0 0 0 0 0 0 0 0 0 0 0 0 0 0 0 0 0 0 0 0 0 0 0 0 0 0 0 0
0 0 0 0 0 0 0 0 0 0 0 0 0 0 0 0 0 0 0 0 0 0 0 0 0 0 0 0 0 0 0 0 0 0 0 0 0 0 0 0 0 0 0 0 0 0 0 0 0
0 0 0 0 0 0 0 0 0 0 0 0 0 0 0 0 1 1 1 1 0 0 0 0 0 0 0 0 0 0 0 0 0 0 0 0 0 0 0 0 0 0 0 0 0 0 0 0 0
0 0 0 0 0 0 0 0 0 0 0 0 0 0 0 1 2 2 2 1 0 0 0 0 0 0 0 0 0 0 0 0 0 0 0 0 0 0 0 0 0 0 0 0 0 0 0 0 0
0 0 0 0 0 0 0 0 0 0 0 0 0 0 0 1 2 3 2 2 1 1 0 0 0 0 0 0 0 0 0 0 0 0 0 0 0 0 0 0 0 0 0 0 0 0 0 0 0
0 0 0 0 0 0 0 0 0 0 0 0 0 0 0 1 2 3 3 3 2 1 0 0 0 0 0 0 0 0 0 0 0 0 0 0 0 0 0 0 0 0 0 0 0 0 0 0 0
0 0 0 0 0 0 0 0 0 0 0 0 0 0 0 1 3 4 4 3 2 1 0 0 0 0 0 0 0 0 0 0 0 0 0 0 0 0 0 0 0 0 0 0 0 0 0 0 0
0 0 0 0 0 0 0 0 0 0 0 0 0 0 0 1 3 4 3 2 1 0 0 0 0 0 0 0 0 0 0 0 0 0 0 0 0 0 0 0 0 0 0 0 0 0 0 0 0
0 0 0 0 0 0 0 0 0 0 0 0 0 0 0 1 3 4 4 2 1 1 1 0 0 0 0 0 0 0 0 0 0 0 0 0 0 0 0 0 0 0 0 0 0 0 0 0 0
0 0 0 0 0 0 0 0 0 0 0 0 0 0 0 1 2 4 5 4 3 2 2 1 0 0 0 0 0 0 0 0 0 0 0 0 0 0 0 0 0 0 0 0 0 0 0 0 0
0 0 0 0 0 0 0 0 0 0 0 0 0 0 0 0 1 4 7 7 6 4 2 1 0 0 0 0 0 0 0 0 0 0 0 0 0 0 0 0 0 0 0 0 0 0 0 0 0
0 0 0 0 0 0 0 0 0 0 0 0 0 0 0 0 1 4 7 8 7 5 2 1 0 0 0 0 0 0 0 0 0 0 0 0 0 0 0 0 0 0 0 0 0 0 0 0 0
0 0 0 0 0 0 0 0 0 0 0 0 0 0 0 0 1 3 5 7 7 5 2 0 0 0 0 0 0 0 0 0 0 0 0 0 0 0 0 0 0 0 0 0 0 0 0 0 0
0 0 0 0 0 0 0 0 0 0 0 0 0 0 0 0 1 2 4 5 6 4 2 0 0 0 0 0 0 0 0 0 0 0 0 0 0 0 0 0 0 0 0 0 0 0 0 0 0
0 0 0 0 0 0 0 0 0 0 0 0 0 0 0 0 0 1 3 4 5 3 1 0 0 0 0 0 0 0 0 0 0 0 0 0 0 0 0 0 0 0 0 0 0 0 0 0 0
0 0 0 0 0 0 0 0 0 0 0 0 0 0 0 0 0 0 2 4 4 3 1 0 0 0 0 0 0 0 0 0 0 0 0 0 0 0 0 0 0 0 0 0 0 0 0 0 0
Wind_Speed
2 1 2 2 4 5 3 1 1 2 4 5 8 9 8 5 4 5 1 5 8 6 4 6 8 8 8 8 9 9 9 9 9 10 10 10 10 10 10 10 9 9 9 8 8 8 8 8 7
1 1 3 3 4 3 1 1 2 3 6 7 8 8 7 5 4 5 3 7 8 7 4 5 8 8 8 9 9 9 9 10 10 9 9 9 9 9 9 9 9 8 8 8 7 7 7 7 7
1 1 3 3 3 3 3 2 2 4 6 5 5 6 5 4 4 3 5 8 7 6 4 6 9 9 9 9 9 9 9 9 9 9 9 9 9 9 9 9 8 8 8 7 7 6 6 6 7
2 3 4 4 3 2 4 3 4 6 6 6 6 6 4 2 3 6 9 9 8 6 4 6 9 9 9 9 9 9 9 9 9 9 9 9 9 9 9 9 8 8 7 7 6 6 6 7 7
3 3 4 3 1 1 1 3 5 6 4 4 6 6 3 3 7 10 9 9 8 6 4 5 9 9 9 9 9 9 9 9 9 9 8 9 9 9 9 8 8 7 7 6 6 6 6 7 7
4 4 4 2 1 1 2 3 6 7 6 5 7 6 2 2 7 8 9 7 8 7 5 5 8 9 9 9 9 9 9 9 9 9 8 8 8 8 8 8 7 7 6 6 5 5 5 6 7
4 3 2 2 1 1 2 3 6 5 4 4 6 6 3 2 5 8 8 7 6 6 5 3 3 5 8 9 9 9 9 9 9 8 7 7 8 8 7 7 7 6 6 5 5 4 5 5 6
4 4 2 1 2 1 1 3 4 5 4 5 5 7 5 5 6 7 7 6 6 5 4 3 2 2 3 4 7 8 8 7 7 7 6 6 6 6 6 5 5 5 5 4 4 4 5 5 7
4 5 0 2 4 2 1 4 2 4 6 3 3 5 6 8 8 7 6 5 5 5 3 3 3 2 2 2 4 5 5 5 5 4 4 4 2 2 2 3 4 4 4 4 4 5 6 7 8
4 2 2 2 4 4 2 4 4 4 5 4 5 6 8 8 8 7 7 6 6 6 4 3 4 4 3 3 2 1 1 1 1 1 1 1 1 1 1 1 2 3 4 4 5 5 5 6 4
3 3 1 0 2 3 3 2 3 6 3 5 9 10 9 8 7 7 7 7 6 6 6 5 5 4 3 2 2 1 0 1 1 1 1 1 1 1 1 1 2 2 4 3 4 4 3 3 3
2 1 2 1 1 2 2 2 3 3 5 8 12 12 10 9 7 7 7 7 6 6 5 5 6 4 3 3 2 2 1 1 1 1 2 2 1 1 1 1 1 1 1 2 2 2 3 3 4
1 1 2 2 2 2 2 2 3 3 6 9 10 10 9 9 8 6 7 7 7 7 6 5 6 5 3 3 2 2 1 1 1 1 2 3 2 2 1 1 1 1 2 2 2 3 4 4 4
2 1 1 1 1 1 2 1 3 4 9 10 10 9 9 9 9 7 7 6 7 7 6 5 6 5 4 3 2 2 2 2 2 1 2 3 3 2 2 2 2 2 2 2 3 3 4 4 4
1 1 2 2 3 2 3 1 3 7 10 10 8 8 8 8 9 9 9 8 8 7 6 6 6 5 5 4 3 3 2 2 2 1 2 3 3 3 3 2 2 2 2 3 3 4 3 4 4
2 2 1 4 3 3 5 3 4 7 10 9 8 7 7 8 9 9 9 8 7 7 7 6 6 6 5 4 3 2 2 3 2 1 2 3 3 4 3 3 2 2 3 3 3 3 4 4 4
2 1 3 4 3 4 5 4 5 6 9 9 8 7 7 7 7 7 8 9 8 7 7 6 6 6 5 4 3 3 3 2 2 2 2 2 3 3 3 3 2 3 3 3 3 3 3 3 3
3 2 2 3 3 3 4 5 5 6 8 9 8 8 8 9 9 9 9 9 8 7 7 7 6 5 5 4 3 3 3 2 2 2 2 2 3 4 4 3 3 3 3 3 3 3 3 3 2
3 2 3 4 4 3 4 4 5 6 6 7 8 8 9 9 8 8 9 9 8 7 7 7 6 4 4 3 3 3 2 1 1 1 2 3 3 3 4 3 3 3 3 3 4 3 3 2 2
3 2 3 4 3 2 2 4 4 6 8 10 10 10 10 8 7 8 9 8 9 8 7 7 7 5 4 3 3 3 3 2 1 1 2 2 3 3 3 4 3 3 3 4 3 3 2 1 1
3 3 4 3 3 2 1 4 4 4 4 5 8 9 10 12 12 11 11 9 9 9 9 8 7 6 5 4 3 3 3 2 2 2 1 1 3 3 3 3 3 3 3 3 3 3 3 1 1
4 4 3 1 1 3 1 2 7 5 3 5 7 7 9 10 10 11 11 10 11 10 9 8 7 6 5 6 6 5 4 2 2 1 0 1 2 3 3 3 3 3 3 3 2 3 2 3 1
4 3 2 1 1 2 1 2 7 3 4 6 7 8 10 10 11 11 11 11 9 9 8 8 8 6 5 5 6 6 3 2 2 2 2 1 2 2 3 3 3 3 2 3 2 3 2 2 2
2 3 4 4 3 2 4 4 6 4 6 5 6 7 9 10 10 10 9 8 7 7 7 8 8 6 5 5 6 6 6 4 4 3 2 1 1 1 2 3 3 3 2 2 2 3 3 2 2
4 5 4 4 3 5 2 3 7 7 6 6 7 7 8 9 10 9 10 9 9 9 8 8 9 7 6 5 5 5 6 6 6 4 3 2 1 0 1 2 2 2 2 3 3 3 3 2 3
3 8 6 4 4 4 2 3 7 5 3 3 5 6 6 8 9 11 11 11 10 10 10 10 9 7 6 5 5 4 5 4 3 4 4 3 2 2 2 3 3 2 3 3 3 3 2 2 3
3 3 6 5 1 1 4 4 5 2 1 1 3 5 6 8 9 10 10 10 11 11 10 10 9 7 6 6 5 4 5 5 4 4 4 3 2 2 3 3 3 2 3 4 4 2 2 2 2
5 5 4 4 3 2 4 3 4 4 3 2 3 4 5 6 8 8 9 10 10 9 8 8 9 8 7 6 5 5 5 5 5 4 4 3 3 3 4 3 3 3 3 3 3 3 2 3 2
3 3 4 4 4 4 3 6 6 7 5 5 4 5 6 8 9 9 8 9 9 8 8 8 7 7 6 6 5 5 5 4 4 4 4 4 3 4 4 4 3 3 2 3 3 3 3 3 3
5 6 6 5 3 3 3 8 6 5 5 5 4 4 5 7 8 8 8 8 7 8 8 8 8 7 7 6 5 5 5 4 4 4 4 4 4 4 4 4 3 3 3 3 3 3 3 3 3
Wind_Direction
317 6 94 62 53 54 51 346 107 76 59 58 75 80 81 59 74 123 178 129 131 133 127 121 123 118 113 110 107 106 107 106 104 100 98 98 97 97 95 92 90 88 85 82 78 72 72 71 67
1 59 77 59 77 75 44 275 83 90 126 116 81 77 78 75 81 108 112 131 130 128 124 123 122 117 113 111 107 107 111 112 109 104 102 100 98 98 97 95 91 87 83 81 78 72 67 65 61
319 152 87 69 90 137 151 204 116 94 99 93 76 54 68 97 113 118 138 135 126 121 121 126 121 117 113 109 107 107 109 111 110 107 103 100 97 98 100 98 95 90 86 82 77 74 67 62 57
61 49 54 70 92 168 163 169 121 94 66 62 94 70 55 57 119 127 135 129 124 121 121 128 123 120 114 110 109 107 109 111 111 109 104 103 101 103 103 99 96 92 88 84 80 74 65 59 58
73 73 59 65 86 121 127 128 106 94 79 71 91 89 67 27 104 120 129 130 128 127 126 129 127 125 121 118 114 110 111 114 113 112 109 106 102 100 99 98 96 94 90 87 83 77 68 63 59
55 66 76 87 59 25 81 103 97 89 103 105 101 108 105 102 116 131 131 132 135 137 133 129 132 131 127 125 123 118 116 119 118 116 112 109 108 105 101 100 98 97 94 89 84 77 73 70 62
98 84 106 142 116 54 106 99 100 110 116 126 123 107 133 145 139 136 133 130 129 133 132 127 131 132 133 131 129 126 125 124 121 121 122 119 115 110 107 108 105 99 96 92 81 69 67 67 63
127 96 61 123 139 165 155 103 112 114 111 118 116 132 165 183 145 132 129 127 126 129 135 136 133 123 127 133 137 137 135 133 129 127 126 123 117 112 114 112 111 103 95 83 76 70 63 64 68
94 76 97 196 163 187 143 99 78 76 92 77 94 141 158 149 131 124 122 120 133 143 152 156 153 147 148 162 150 143 145 143 135 128 124 107 87 89 106 119 121 102 89 72 69 67 64 62 64
91 113 229 209 167 166 146 123 131 88 83 79 84 104 130 137 136 138 146 148 153 159 173 176 175 177 172 171 133 117 128 129 117 118 122 109 114 135 125 107 104 87 76 67 64 60 56 55 54
142 169 193 69 157 138 125 119 108 123 130 161 153 153 151 148 150 154 158 158 161 164 167 175 181 181 175 164 156 144 121 128 134 156 146 121 94 73 69 56 40 44 53 43 45 43 47 60 71
138 184 168 167 109 112 128 122 101 147 182 170 159 158 156 156 165 167 167 165 156 151 159 165 171 166 169 158 159 154 141 142 155 182 157 128 116 113 103 80 66 59 56 54 47 58 61 71 82
139 201 173 166 132 137 118 139 128 142 148 149 151 154 163 166 171 176 170 162 152 153 158 163 162 156 150 144 149 141 147 152 147 133 132 135 131 136 128 108 101 96 88 80 70 73 78 78 77
195 177 223 208 209 193 151 179 118 165 151 150 156 165 171 168 166 165 162 162 160 157 157 160 149 145 134 129 133 136 140 129 115 109 124 133 134 132 114 99 97 95 100 97 91 87 84 79 80
133 68 338 249 206 212 137 36 186 176 158 159 166 172 170 169 167 170 172 166 164 158 152 150 141 131 125 121 118 122 130 115 95 89 102 115 120 122 114 107 97 93 97 91 84 73 74 80 78
48 64 284 268 192 195 133 228 240 180 163 170 175 173 169 171 175 177 170 161 161 154 149 147 137 127 122 119 110 113 117 108 94 86 89 105 110 115 105 101 99 104 93 88 90 83 79 72 74
21 202 239 274 223 179 155 214 233 191 171 179 181 180 177 170 173 178 171 162 162 157 147 141 134 133 132 125 115 110 104 97 88 77 81 102 109 108 109 103 106 107 92 86 97 84 93 90 86
227 228 244 244 246 168 176 221 219 200 180 184 185 184 183 179 185 180 172 163 160 155 145 143 139 136 128 113 97 86 77 71 73 79 81 90 100 108 109 104 100 99 95 85 91 91 78 88 94
205 217 258 260 241 181 209 235 227 205 191 187 189 190 190 192 190 175 168 159 154 153 149 148 144 141 131 121 120 116 114 97 71 75 84 84 94 102 100 103 98 99 104 109 111 99 82 70 84
228 246 276 290 275 190 215 257 240 206 204 197 193 193 191 187 176 171 168 163 162 163 160 155 152 149 143 139 141 141 139 130 122 80 69 77 92 97 107 109 113 112 109 101 95 102 97 71 83
235 215 236 250 321 11 71 322 295 261 229 207 199 191 184 182 179 175 171 171 166 167 169 164 158 150 145 135 114 99 78 65 52 47 37 44 96 102 103 114 115 116 119 124 120 118 118 120 18
241 238 225 227 68 292 149 274 285 265 258 214 204 191 184 182 179 175 174 175 173 173 169 158 154 150 145 133 128 134 135 145 173 164 131 59 84 96 98 104 109 117 118 123 136 125 124 123 93
217 238 238 249 183 302 287 186 282 290 254 237 212 197 190 184 177 175 175 178 172 165 161 155 150 147 144 138 140 138 138 150 145 119 107 70 44 77 98 110 109 112 117 125 119 112 112 122 131
174 35 25 40 74 283 241 179 273 246 225 227 215 203 191 181 178 176 170 161 155 151 148 151 151 151 153 148 147 147 153 151 140 137 134 111 49 43 87 110 107 112 117 126 129 124 121 115 108
94 86 36 3 2 258 255 173 245 249 230 205 200 198 189 176 171 167 162 163 158 157 152 153 157 160 167 158 160 161 162 159 160 163 163 159 143 103 117 114 116 119 128 126 119 113 113 116 117
179 141 154 189 227 277 315 222 251 260 243 196 179 176 173 174 171 171 171 167 165 163 161 160 162 164 172 169 171 166 161 156 161 168 167 173 175 177 152 130 128 127 121 117 110 103 108 111 118
158 182 172 148 213 268 279 287 310 333 354 132 146 149 169 177 176 174 170 168 166 164 169 168 163 165 176 176 167 164 159 152 155 160 161 164 167 163 144 133 121 118 116 117 114 103 109 115 114
163 153 102 123 166 251 282 267 244 247 240 203 179 176 180 176 172 172 171 169 170 167 170 166 165 172 178 176 177 171 165 158 152 147 152 156 158 145 138 133 122 112 113 118 112 108 105 105 102
152 139 128 141 162 165 238 264 232 207 204 195 202 196 185 179 175 175 172 170 167 162 165 166 169 170 175 174 170 160 162 156 149 154 161 161 156 149 146 149 137 127 123 119 114 115 112 106 98
173 174 148 155 216 179 191 265 269 211 199 186 195 198 195 181 174 172 166 162 163 166 169 170 172 174 177 171 164 162 164 155 154 161 162 158 159 155 151 145 133 132 127 121 126 126 115 116 116